Location: Unspecified
(44.4377°N, 88.0525°W)
Time: 11:18:37
(UTC-06:00)

ISS - Visible Passes

Search period start: 20 November 2019 00:00
Search period end: 30 November 2019 00:00
Orbit: 412 x 421 km, 51.6° (Epoch: 20 November)

Date Brightness Start Highest point End Pass type
(mag) Time Alt. Az. Time Alt. Az. Time Alt. Az.
20 Nov -1.3 17:40:42 10° SE 17:40:56 10° SE 17:40:56 10° SE visible
21 Nov -2.1 18:25:56 10° SW 18:27:47 27° SSW 18:27:47 27° SSW visible
22 Nov -2.5 17:37:59 10° SSW 17:40:51 26° SE 17:41:37 24° ESE visible
22 Nov -0.4 19:14:09 10° WSW 19:14:32 13° W 19:14:32 13° W visible
23 Nov -1.7 16:50:26 10° S 16:52:36 16° SE 16:54:46 10° E visible
23 Nov -3.0 18:25:38 10° WSW 18:28:16 52° W 18:28:16 52° W visible
24 Nov -3.8 17:37:14 10° SW 17:40:34 68° SE 17:41:56 32° ENE visible
24 Nov -0.4 19:14:30 10° W 19:14:50 12° WNW 19:14:50 12° WNW visible
25 Nov -3.0 16:49:02 10° SSW 16:52:11 40° SE 16:55:22 10° ENE visible
25 Nov -2.4 18:25:47 10° W 18:28:26 35° NW 18:28:26 35° NW visible
26 Nov -3.3 17:37:08 10° WSW 17:40:26 53° NNW 17:41:58 27° NE visible
27 Nov -3.7 16:48:35 10° WSW 16:51:56 81° NNW 16:55:18 10° ENE visible
27 Nov -1.9 18:26:08 10° WNW 18:28:21 24° NNW 18:28:21 24° NNW visible
28 Nov -2.5 17:37:22 10° W 17:40:24 31° NNW 17:41:48 22° NNE visible
29 Nov -2.9 16:48:38 10° W 16:51:49 40° NNW 16:55:01 10° NE visible
29 Nov -1.6 18:26:24 10° NW 18:28:07 20° NNW 18:28:07 20° NNW visible
